Location: Boca do Mato
(22.9085°S, 43.2930°W)
Time: 22:41:58
(UTC+00:00)

Helios 1A Rocket - Pass Details

Date: 14 July 2020
Orbit: 562 x 587 km, 98.3° (Epoch: 10 August)

Event Time Altitude Azimuth Distance (km) Brightness Sun altitude
Rises 08:36:33 0° 28° (NNE) 2,743 7.1 -13.1°
Reaches altitude 10° 08:38:46 10° 35° (NE) 1,857 6.4 -12.7°
Maximum altitude 08:42:32 40° 105° (ESE) 849 4.3 -11.8°
Drops below altitude 10° 08:46:22 10° 175° (S) 1,891 5.4 -11.0°
Sets 08:48:37 0° 182° (S) 2,800 6.2 -10.5°
